| time (UTC) | temp F | wind direction | speed knots | gust knots | rain 1hr in | rain 24hr in | rain mn in | humidity % | barometer mb |
| 20260505052158 | 59 | 145 | 0.0 | 0.0 | 0.00 | 0.00 | 0.00 | 79 | 1010.3 |
| 20260505051656 | 59 | 205 | 0.0 | 0.0 | 0.00 | 0.00 | 0.00 | 79 | 1010.2 |
| 20260505051154 | 59 | 149 | 0.0 | 0.0 | 0.00 | 0.00 | 0.00 | 80 | 1010.3 |
| 20260505050651 | 59 | 220 | 0.0 | 0.9 | 0.00 | 0.00 | 0.00 | 79 | 1010.2 |
| 20260505050149 | 59 | 6 | 0.0 | 0.0 | 0.00 | 0.00 | 0.00 | 80 | 1010.0 |
| 20260505041619 | 59 | 72 | 0.0 | 0.0 | 0.00 | 0.00 | 0.00 | 77 | 1010.4 |
| 20260505041116 | 59 | 143 | 0.0 | 0.0 | 0.00 | 0.00 | 0.00 | 77 | 1010.5 |
| 20260505040613 | 59 | 158 | 0.0 | 0.0 | 0.00 | 0.00 | 0.00 | 77 | 1010.3 |
| 20260505040110 | 59 | 164 | 0.0 | 0.0 | 0.00 | 0.00 | 0.00 | 77 | 1010.4 |
| 20260505035607 | 59 | 221 | 0.0 | 0.0 | 0.00 | 0.00 | 0.00 | 77 | 1010.3 |
| 20260505035103 | 59 | 146 | 0.0 | 0.0 | 0.00 | 0.00 | 0.00 | 77 | 1010.3 |
| 20260505034600 | 58 | 151 | 0.0 | 0.0 | 0.00 | 0.00 | 0.00 | 77 | 1010.2 |
| 20260505034056 | 59 | 155 | 0.0 | 0.0 | 0.00 | 0.00 | 0.00 | 76 | 1010.2 |
| 20260505033553 | 59 | 144 | 0.0 | 0.0 | 0.00 | 0.00 | 0.00 | 76 | 1010.2 |
| 20260505033052 | 59 | 163 | 0.0 | 0.0 | 0.00 | 0.00 | 0.00 | 76 | 1010.0 |
| 20260505032549 | 59 | 149 | 0.0 | 0.0 | 0.00 | 0.00 | 0.00 | 76 | 1010.2 |
| 20260505032045 | 58 | 139 | 0.0 | 0.0 | 0.00 | 0.00 | 0.00 | 76 | 1010.2 |
| 20260505031543 | 58 | 155 | 0.0 | 0.0 | 0.00 | 0.00 | 0.00 | 76 | 1010.3 |
| 20260505031039 | 59 | 147 | 0.0 | 0.0 | 0.00 | 0.00 | 0.00 | 76 | 1010.4 |
| 20260505030536 | 59 | 160 | 0.0 | 0.0 | 0.00 | 0.00 | 0.00 | 75 | 1010.3 |
| 20260505030032 | 59 | 159 | 0.0 | 0.0 | 0.00 | 0.00 | 0.00 | 75 | 1010.5 |
| 20260505025528 | 58 | 145 | 0.0 | 0.0 | 0.00 | 0.00 | 0.00 | 76 | 1010.5 |
| 20260505025027 | 59 | 149 | 0.0 | 0.0 | 0.00 | 0.00 | 0.00 | 75 | 1010.5 |
| 20260505024524 | 59 | 157 | 0.0 | 0.0 | 0.00 | 0.00 | 0.00 | 74 | 1010.4 |
| 20260505024021 | 59 | 164 | 0.0 | 0.0 | 0.00 | 0.00 | 0.00 | 74 | 1010.6 |
| 20260505023518 | 60 | 142 | 0.0 | 0.0 | 0.00 | 0.00 | 0.00 | 72 | 1010.7 |
| 20260505023015 | 60 | 144 | 0.0 | 0.0 | 0.00 | 0.00 | 0.00 | 72 | 1010.7 |
| 20260505022513 | 60 | 161 | 0.0 | 0.0 | 0.00 | 0.00 | 0.00 | 72 | 1010.6 |
| 20260505022010 | 60 | 149 | 0.0 | 0.0 | 0.00 | 0.00 | 0.00 | 71 | 1010.5 |
| 20260505021506 | 60 | 154 | 0.0 | 0.0 | 0.00 | 0.00 | 0.00 | 71 | 1010.6 |
| 20260505021003 | 60 | 151 | 0.0 | 0.0 | 0.00 | 0.00 | 0.00 | 70 | 1010.7 |
| 20260505020457 | 60 | 148 | 0.0 | 0.0 | 0.00 | 0.00 | 0.00 | 69 | 1010.7 |
| 20260505015954 | 60 | 160 | 0.0 | 0.0 | 0.00 | 0.00 | 0.00 | 70 | 1010.6 |
| 20260505015452 | 60 | 152 | 0.0 | 0.0 | 0.00 | 0.00 | 0.00 | 69 | 1010.3 |
| 20260505014949 | 60 | 142 | 0.0 | 0.0 | 0.00 | 0.00 | 0.00 | 68 | 1010.6 |
| 20260505014446 | 60 | 140 | 0.0 | 0.0 | 0.00 | 0.00 | 0.00 | 68 | 1010.6 |
| 20260505013943 | 60 | 158 | 0.0 | 0.0 | 0.00 | 0.00 | 0.00 | 68 | 1010.4 |
| 20260505013440 | 60 | 150 | 0.0 | 0.0 | 0.00 | 0.00 | 0.00 | 67 | 1010.5 |
| 20260505012937 | 61 | 140 | 0.0 | 0.0 | 0.00 | 0.00 | 0.00 | 66 | 1010.5 |
| 20260505012435 | 61 | 140 | 0.0 | 0.0 | 0.00 | 0.00 | 0.00 | 66 | 1010.4 |
| 20260505011931 | 61 | 150 | 0.0 | 0.0 | 0.00 | 0.00 | 0.00 | 66 | 1010.6 |
| 20260505011428 | 61 | 159 | 0.0 | 0.0 | 0.00 | 0.00 | 0.00 | 66 | 1010.4 |
| 20260505010925 | 62 | 150 | 0.0 | 0.0 | 0.00 | 0.00 | 0.00 | 65 | 1010.4 |
| 20260505010420 | 62 | 178 | 0.0 | 0.0 | 0.00 | 0.00 | 0.00 | 64 | 1010.0 |
| 20260505005917 | 62 | 155 | 0.0 | 0.0 | 0.00 | 0.00 | 0.00 | 63 | 1010.1 |
| 20260505005414 | 62 | 153 | 0.0 | 0.0 | 0.00 | 0.00 | 0.00 | 61 | 1010.1 |
| 20260505004911 | 63 | 149 | 0.0 | 0.0 | 0.00 | 0.00 | 0.00 | 60 | 1009.8 |
| 20260505004407 | 63 | 141 | 0.0 | 0.0 | 0.00 | 0.00 | 0.00 | 58 | 1009.9 |
| 20260505003905 | 63 | 135 | 0.0 | 0.0 | 0.00 | 0.00 | 0.00 | 56 | 1010.0 |
| 20260505003401 | 64 | 146 | 0.0 | 0.0 | 0.00 | 0.00 | 0.00 | 53 | 1010.1 |
| 20260505002858 | 64 | 178 | 0.0 | 0.0 | 0.00 | 0.00 | 0.00 | 50 | 1009.9 |
| 20260505002354 | 64 | 156 | 0.0 | 0.0 | 0.00 | 0.00 | 0.00 | 50 | 1009.9 |
| 20260505001853 | 64 | 153 | 0.0 | 0.0 | 0.00 | 0.00 | 0.00 | 49 | 1009.8 |
| 20260505001349 | 64 | 156 | 0.0 | 0.0 | 0.00 | 0.00 | 0.00 | 48 | 1009.8 |
| 20260505000847 | 65 | 151 | 0.0 | 0.0 | 0.00 | 0.00 | 0.00 | 48 | 1009.6 |
| 20260505000344 | 65 | 151 | 0.0 | 0.0 | 0.00 | 0.00 | 0.00 | 47 | 1009.6 |
| 20260504235841 | 66 | 140 | 0.0 | 0.0 | 0.00 | 0.00 | 0.00 | 45 | 1009.5 |
| 20260504235338 | 67 | 170 | 0.0 | 0.0 | 0.00 | 0.00 | 0.00 | 44 | 1009.5 |
| 20260504234835 | 67 | 171 | 0.0 | 0.0 | 0.00 | 0.00 | 0.00 | 43 | 1009.4 |
| 20260504234332 | 68 | 202 | 0.0 | 0.0 | 0.00 | 0.00 | 0.00 | 42 | 1009.5 |
| 20260504233829 | 68 | 161 | 0.0 | 0.0 | 0.00 | 0.00 | 0.00 | 41 | 1009.6 |
| 20260504233324 | 68 | 168 | 0.0 | 0.0 | 0.00 | 0.00 | 0.00 | 41 | 1009.3 |
| 20260504232822 | 69 | 136 | 0.0 | 0.0 | 0.00 | 0.00 | 0.00 | 42 | 1009.3 |
| 20260504232319 | 69 | 161 | 0.0 | 0.0 | 0.00 | 0.00 | 0.00 | 40 | 1009.4 |
| 20260504231815 | 70 | 178 | 0.0 | 0.0 | 0.00 | 0.00 | 0.00 | 38 | 1009.5 |
| 20260504231312 | 70 | 229 | 0.9 | 1.7 | 0.00 | 0.00 | 0.00 | 39 | 1009.4 |
| 20260504230808 | 69 | 182 | 0.0 | 0.0 | 0.00 | 0.00 | 0.00 | 39 | 1009.6 |
| 20260504230306 | 70 | 226 | 0.0 | 0.0 | 0.00 | 0.00 | 0.00 | 39 | 1009.3 |
| 20260504225805 | 70 | 179 | 0.0 | 0.0 | 0.00 | 0.00 | 0.00 | 38 | 1009.5 |
| 20260504225301 | 71 | 156 | 0.0 | 0.0 | 0.00 | 0.00 | 0.00 | 38 | 1009.3 |
| 20260504224758 | 71 | 159 | 1.7 | 2.6 | 0.00 | 0.00 | 0.00 | 37 | 1009.3 |
| 20260504224255 | 71 | 253 | 0.9 | 1.7 | 0.00 | 0.00 | 0.00 | 37 | 1009.3 |
| 20260504223751 | 71 | 196 | 0.0 | 0.0 | 0.00 | 0.00 | 0.00 | 35 | 1009.2 |
| 20260504223247 | 71 | 140 | 0.0 | 0.0 | 0.00 | 0.00 | 0.00 | 36 | 1009.3 |
| 20260504222744 | 71 | 216 | 0.0 | 0.0 | 0.00 | 0.00 | 0.00 | 36 | 1009.4 |
| 20260504222241 | 71 | 197 | 0.0 | 0.9 | 0.00 | 0.00 | 0.00 | 36 | 1009.4 |
| 20260504221739 | 72 | 174 | 1.7 | 2.6 | 0.00 | 0.00 | 0.00 | 35 | 1009.3 |
| 20260504221236 | 72 | 163 | 1.7 | 4.3 | 0.00 | 0.00 | 0.00 | 35 | 1009.4 |
| 20260504220732 | 72 | 100 | 0.0 | 0.9 | 0.00 | 0.00 | 0.00 | 35 | 1009.2 |
| 20260504220229 | 72 | 154 | 0.0 | 0.0 | 0.00 | 0.00 | 0.00 | 35 | 1009.3 |
| 20260504215727 | 73 | 84 | 0.0 | 0.0 | 0.00 | 0.00 | 0.00 | 34 | 1009.3 |
| 20260504215223 | 73 | 323 | 0.0 | 0.0 | 0.00 | 0.00 | 0.00 | 35 | 1009.3 |
| 20260504214719 | 72 | 139 | 0.0 | 0.0 | 0.00 | 0.00 | 0.00 | 34 | 1009.1 |
| 20260504214215 | 72 | 111 | 0.0 | 0.0 | 0.00 | 0.00 | 0.00 | 35 | 1009.4 |
| 20260504213712 | 73 | 152 | 0.0 | 0.0 | 0.00 | 0.00 | 0.00 | 34 | 1009.3 |
| 20260504213209 | 73 | 27 | 0.0 | 0.0 | 0.00 | 0.00 | 0.00 | 34 | 1009.3 |
| 20260504212706 | 73 | 238 | 0.0 | 0.9 | 0.00 | 0.00 | 0.00 | 34 | 1009.4 |
| 20260504212203 | 73 | 132 | 1.7 | 1.7 | 0.00 | 0.00 | 0.00 | 33 | 1009.3 |
| 20260504211700 | 73 | 180 | 0.0 | 0.0 | 0.00 | 0.00 | 0.00 | 33 | 1009.3 |
| 20260504211155 | 73 | 225 | 2.6 | 4.3 | 0.00 | 0.00 | 0.00 | 33 | 1009.1 |
| 20260504210654 | 73 | 168 | 0.0 | 0.0 | 0.00 | 0.00 | 0.00 | 33 | 1009.3 |
| 20260504210150 | 73 | 147 | 0.0 | 1.7 | 0.00 | 0.00 | 0.00 | 33 | 1009.5 |
| 20260504205647 | 74 | 247 | 0.9 | 1.7 | 0.00 | 0.00 | 0.00 | 34 | 1009.2 |
| 20260504205144 | 73 | 154 | 0.0 | 0.0 | 0.00 | 0.00 | 0.00 | 34 | 1009.2 |
| 20260504204643 | 74 | 182 | 0.9 | 1.7 | 0.00 | 0.00 | 0.00 | 33 | 1009.4 |
| 20260504204142 | 74 | 222 | 2.6 | 6.1 | 0.00 | 0.00 | 0.00 | 33 | 1009.0 |
| 20260504203640 | 74 | 136 | 0.0 | 0.0 | 0.00 | 0.00 | 0.00 | 33 | 1009.4 |
| 20260504203137 | 74 | 150 | 0.0 | 0.0 | 0.00 | 0.00 | 0.00 | 35 | 1009.2 |
| 20260504202637 | 74 | 112 | 0.0 | 0.9 | 0.00 | 0.00 | 0.00 | 33 | 1008.9 |
| 20260504202134 | 75 | 245 | 1.7 | 2.6 | 0.00 | 0.00 | 0.00 | 33 | 1009.2 |
| 20260504201631 | 75 | 84 | 0.0 | 0.0 | 0.00 | 0.00 | 0.00 | 32 | 1009.3 |
| 20260504201129 | 75 | 183 | 0.0 | 1.7 | 0.00 | 0.00 | 0.00 | 32 | 1009.2 |
| 20260504200626 | 75 | 10 | 0.0 | 0.9 | 0.00 | 0.00 | 0.00 | 30 | 1009.5 |
| 20260504200122 | 75 | 170 | 2.6 | 2.6 | 0.00 | 0.00 | 0.00 | 31 | 1009.6 |
| 20260504195618 | 75 | 343 | 0.9 | 0.9 | 0.00 | 0.00 | 0.00 | 31 | 1009.5 |
| 20260504195115 | 76 | 130 | 0.0 | 1.7 | 0.00 | 0.00 | 0.00 | 34 | 1009.5 |
| 20260504194612 | 76 | 160 | 0.9 | 1.7 | 0.00 | 0.00 | 0.00 | 30 | 1009.5 |
| 20260504194107 | 75 | 170 | 0.9 | 2.6 | 0.00 | 0.00 | 0.00 | 31 | 1009.8 |
| 20260504193604 | 75 | 158 | 0.9 | 0.9 | 0.00 | 0.00 | 0.00 | 32 | 1009.8 |
| 20260504193103 | 76 | 135 | 0.0 | 0.9 | 0.00 | 0.00 | 0.00 | 30 | 1009.7 |
| 20260504192600 | 76 | 324 | 0.9 | 1.7 | 0.00 | 0.00 | 0.00 | 31 | 1009.9 |
| 20260504192058 | 75 | 275 | 0.0 | 0.9 | 0.00 | 0.00 | 0.00 | 32 | 1010.0 |
| 20260504191556 | 75 | 89 | 2.6 | 7.0 | 0.00 | 0.00 | 0.00 | 31 | 1010.2 |
| 20260504191052 | 75 | 170 | 0.9 | 1.7 | 0.00 | 0.00 | 0.00 | 32 | 1009.9 |
| 20260504190548 | 76 | 159 | 0.0 | 0.0 | 0.00 | 0.00 | 0.00 | 34 | 1009.9 |
| 20260504190044 | 75 | 227 | 1.7 | 2.6 | 0.00 | 0.00 | 0.00 | 34 | 1010.1 |
| 20260504185542 | 75 | 221 | 4.3 | 7.0 | 0.00 | 0.00 | 0.00 | 32 | 1010.3 |
| 20260504185038 | 75 | 6 | 0.9 | 1.7 | 0.00 | 0.00 | 0.00 | 33 | 1010.4 |
| 20260504184534 | 75 | 220 | 2.6 | 2.6 | 0.00 | 0.00 | 0.00 | 35 | 1010.5 |
| 20260504184029 | 75 | 243 | 4.3 | 7.0 | 0.00 | 0.00 | 0.00 | 32 | 1010.6 |
| 20260504183526 | 74 | 93 | 0.0 | 0.0 | 0.00 | 0.00 | 0.00 | 33 | 1010.4 |
| 20260504183025 | 74 | 148 | 1.7 | 4.3 | 0.00 | 0.00 | 0.00 | 33 | 1010.9 |
| 20260504182521 | 76 | 222 | 0.0 | 0.9 | 0.00 | 0.00 | 0.00 | 33 | 1010.9 |
| 20260504182019 | 74 | 138 | 0.0 | 0.0 | 0.00 | 0.00 | 0.00 | 33 | 1010.8 |
| 20260504181515 | 74 | 224 | 0.9 | 2.6 | 0.00 | 0.00 | 0.00 | 33 | 1010.9 |
| 20260504181014 | 73 | 65 | 0.0 | 0.0 | 0.00 | 0.00 | 0.00 | 34 | 1011.0 |
| 20260504180512 | 73 | 349 | 1.7 | 2.6 | 0.00 | 0.00 | 0.00 | 32 | 1011.1 |
| 20260504180011 | 73 | 167 | 3.5 | 5.2 | 0.00 | 0.00 | 0.00 | 34 | 1011.1 |
| 20260504175508 | 73 | 158 | 0.9 | 1.7 | 0.00 | 0.00 | 0.00 | 33 | 1011.2 |
| 20260504175005 | 73 | 137 | 0.0 | 0.0 | 0.00 | 0.00 | 0.00 | 36 | 1011.5 |
| 20260504174503 | 73 | 91 | 0.0 | 0.9 | 0.00 | 0.00 | 0.00 | 33 | 1011.2 |
| 20260504173959 | 74 | 69 | 0.9 | 1.7 | 0.00 | 0.00 | 0.00 | 31 | 1011.4 |
| 20260504173456 | 73 | 241 | 2.6 | 4.3 | 0.00 | 0.00 | 0.00 | 32 | 1011.6 |
| 20260504172954 | 73 | 119 | 1.7 | 2.6 | 0.00 | 0.00 | 0.00 | 33 | 1011.4 |
| 20260504172449 | 73 | 171 | 0.0 | 0.0 | 0.00 | 0.00 | 0.00 | 37 | 1011.5 |
| 20260504171946 | 72 | 149 | 0.0 | 0.0 | 0.00 | 0.00 | 0.00 | 35 | 1011.4 |
| 20260504171443 | 73 | 281 | 0.0 | 1.7 | 0.00 | 0.00 | 0.00 | 37 | 1011.8 |
| 20260504170940 | 72 | 136 | 0.0 | 0.9 | 0.00 | 0.00 | 0.00 | 35 | 1011.5 |
| 20260504170436 | 72 | 134 | 0.0 | 0.0 | 0.00 | 0.00 | 0.00 | 34 | 1011.7 |
| 20260504160355 | 70 | 139 | 0.0 | 0.0 | 0.00 | 0.00 | 0.00 | 38 | 1012.4 |
| 20260504150820 | 68 | 170 | 0.0 | 0.0 | 0.00 | 0.00 | 0.00 | 46 | 1013.0 |
| 20260504150316 | 67 | 133 | 0.0 | 0.0 | 0.00 | 0.00 | 0.00 | 46 | 1013.2 |
| 20260504141247 | 63 | 136 | 0.0 | 0.0 | 0.00 | 0.00 | 0.00 | 56 | 1013.1 |
| 20260504140743 | 62 | 201 | 4.3 | 8.7 | 0.00 | 0.00 | 0.00 | 56 | 1013.3 |
| 20260504140239 | 62 | 113 | 0.0 | 0.9 | 0.00 | 0.00 | 0.00 | 57 | 1013.3 |
| 20260504130708 | 59 | 186 | 3.5 | 5.2 | 0.00 | 0.00 | 0.00 | 62 | 1013.6 |
| 20260504130203 | 58 | 254 | 0.0 | 0.0 | 0.00 | 0.00 | 0.00 | 67 | 1013.9 |
| 20260504120127 | 54 | 199 | 0.0 | 0.9 | 0.00 | 0.00 | 0.00 | 77 | 1014.2 |
| 20260504110555 | 48 | 148 | 0.0 | 0.0 | 0.00 | 0.00 | 0.00 | 86 | 1014.7 |
| 20260504100517 | 44 | 148 | 0.0 | 0.0 | 0.00 | 0.00 | 0.00 | 85 | 1014.6 |
| 20260504081910 | 47 | 147 | 0.0 | 0.0 | 0.00 | 0.00 | 0.00 | 70 | 1014.5 |
| 20260504081407 | 48 | 165 | 0.0 | 0.0 | 0.00 | 0.00 | 0.00 | 69 | 1014.5 |
| 20260504080903 | 47 | 142 | 0.0 | 0.0 | 0.00 | 0.00 | 0.00 | 69 | 1014.4 |
| 20260504080400 | 47 | 142 | 0.0 | 0.0 | 0.00 | 0.00 | 0.00 | 69 | 1014.4 |
| 20260504070327 | 46 | 148 | 0.0 | 0.0 | 0.00 | 0.00 | 0.00 | 69 | 1014.0 |
| 20260504060247 | 47 | 186 | 0.0 | 0.0 | 0.00 | 0.00 | 0.00 | 66 | 1014.1 |